[[{"header":{"parameterUnit":"m.s-1","parameterCategory":1,"la1":30.2991,"la2":30.254,"lo1":-89.0895,"lo2":-89.0444,"dy":0.0017,"dx":0.0017,"nx":28,"ny":28,"refTime":"2024-08-28T21:00:00:Z","depth":0,"parameterNumber":2,"parameterNumberName":"U-component_of_WINDS"},"data":[0,0,0,0,0,0,0,0,0,0,0,0,0,0,0,0,0,0,0,0,0,0,0,0,0,0,0,0,0,0,0,0,0,0,0,0,0,0,0,0,0,0,0,0,0,0,0,0,0,0,0,0,0,0,0,0,0,0,-3.3686,-3.3687,0,-3.3732,-3.3732,-3.3733,-3.3719,-3.3718,-3.3718,-3.3717,-3.3761,-3.3763,-3.3765,0,0,0,0,0,0,0,0,0,0,0,0,0,-3.3587,-3.3588,-3.3686,-3.3687,-3.3688,-3.3732,-3.3732,-3.3733,-3.372,-3.3718,-3.3717,-3.3716,-3.376,-3.3763,-3.3765,0,0,0,0,0,0,0,0,0,0,0,0,0,-3.3631,-3.3589,-3.3686,-3.3686,-3.3687,-3.3732,-3.3732,-3.3733,-3.372,-3.3718,-3.3717,-3.3716,-3.3759,-3.3762,-3.3765,-3.3812,0,0,-3.3775,-3.3776,0,0,0,0,0,0,0,0,-3.3628,-3.3634,-3.3686,-3.3686,-3.3687,-3.3719,-3.3713,-3.376,-3.372,-3.3707,-3.3717,-3.3715,-3.3748,-3.3752,-3.3763,-3.3815,-3.3816,-3.3775,-3.3777,-3.3778,-3.3779,0,0,0,0,0,0,0,-3.3625,-3.3632,-3.3704,-3.3686,-3.3687,-3.3683,-3.3688,-3.3722,-3.3735,-3.3708,-3.3707,-3.3713,-3.3748,-3.376,-3.3764,-3.3817,-3.3775,-3.3778,-3.378,-3.3781,-3.391,-3.3911,0,0,0,0,0,0,-3.3622,-3.363,-3.3703,-3.3706,-3.3654,-3.3686,-3.3692,-3.371,-3.3734,-3.3737,-3.3714,-3.3712,-3.3756,-3.3761,-3.3766,-3.3822,-3.3778,-3.3781,-3.3783,-3.3908,-3.391,-3.3912,0,0,0,0,0,0,-3.362,-3.3629,-3.3701,-3.3668,-3.3677,-3.369,-3.371,-3.3711,-3.3724,-3.3739,-3.3741,-3.3725,-3.3755,-3.3761,-3.3801,-3.3824,-3.3782,-3.3785,-3.3906,-3.3909,-3.3911,-3.3936,0,0,0,0,0,0,-3.3617,-3.3628,-3.3646,-3.3668,-3.3678,-3.3736,-3.3712,-3.3713,-3.373,-3.3727,-3.3749,-3.3752,-3.3754,-3.3797,-3.3804,-3.3827,-3.3788,-3.3904,-3.3907,-3.391,-3.3933,-3.3939,-3.3944,0,0,0,0,0,-3.3613,-3.3651,-3.3647,-3.3656,-3.3702,-3.3738,-3.3743,-3.3746,-3.3731,-3.375,-3.3759,-3.3751,-3.382,-3.3801,-3.3809,-3.3833,-3.3903,-3.3907,-3.391,-3.3931,-3.3938,-3.3944,0,0,0,0,0,0,-3.363,-3.3654,-3.365,-3.3695,-3.3715,-3.3735,-3.3758,-3.3754,-3.3777,-3.3774,-3.3776,-3.3781,-3.3822,-3.3832,-3.381,-3.3881,-3.3859,-3.3865,-3.3872,-3.3879,-3.3885,-3.3881,-3.379,0,0,0,0,0,-3.3639,-3.3667,-3.3686,-3.3724,-3.3734,-3.3745,-3.3761,-3.3762,-3.3781,-3.3789,-3.3802,-3.382,-3.3847,-3.3864,-3.3889,-3.3935,-3.394,-3.3956,-3.3962,-3.3966,-3.397,-3.3996,-3.4003,-3.3924,-3.3923,-3.3923,0,0,-3.3658,-3.3674,-3.3691,-3.3728,-3.3743,-3.3772,-3.3752,-3.3782,-3.3803,-3.3793,-3.3832,-3.3842,-3.3863,-3.3907,-3.3927,-3.3916,-3.3993,-3.397,-3.3974,-3.3976,-3.4,-3.4008,-3.4014,-3.3926,-3.3925,-3.3925,0,0,-3.3706,-3.3722,-3.3756,-3.3772,-3.3795,-3.3802,-3.381,-3.3832,-3.3838,-3.3878,-3.3871,-3.3896,-3.3941,-3.3956,-3.397,-3.4026,-3.4019,-3.4034,-3.4062,-3.4087,-3.4093,-3.4098,-3.4118,-3.4125,-3.4039,-3.4039,-3.4039,0,-3.3726,-3.3769,-3.3773,-3.3805,-3.3821,-3.3815,-3.3849,-3.3864,-3.3894,-3.3905,-3.3894,-3.3951,-3.3965,-3.4012,-3.4026,-3.4037,-3.4046,-3.4031,-3.4092,-3.4097,-3.4103,-3.4121,-3.4129,-3.404,-3.404,-3.404,-3.404,0,-3.3792,-3.3822,-3.3847,-3.3877,-3.3896,-3.3929,-3.3938,-3.3957,-3.3957,-3.3965,-3.4005,-3.4021,-3.405,-3.4061,-3.4061,-3.4109,-3.4102,-3.4091,-3.4069,-3.4112,-3.4129,-3.4137,-3.4043,-3.4042,-3.4042,-3.4041,0,0,-3.3851,-3.3884,-3.3893,-3.3907,-3.3933,-3.3956,-3.3989,-3.4018,-3.4034,-3.4055,-3.4082,-3.4121,-3.4112,-3.4128,-3.4129,-3.4151,-3.4194,-3.4138,-3.4138,-3.4147,-3.4248,-3.4255,-3.4263,-3.419,-3.4192,-3.4193,-3.4246,0,-3.3901,-3.3959,-3.3964,-3.4016,-3.4044,-3.4039,-3.4068,-3.4087,-3.4095,-3.412,-3.4129,-3.4157,-3.4143,-3.4152,-3.4174,-3.4184,-3.4214,-3.4181,-3.4215,-3.4216,-3.4209,-3.4273,-3.428,-3.4329,-3.4253,-3.4254,-3.4255,0,-3.3967,-3.3991,-3.4046,-3.4069,-3.4081,-3.4107,-3.4134,-3.4158,-3.4179,-3.4184,-3.4202,-3.4201,-3.4234,-3.4213,-3.4259,-3.4236,-3.425,-3.4258,-3.426,-3.4262,-3.4237,-3.4276,-3.4345,-3.4352,-3.4266,-3.4265,-3.4264,0,-3.4003,-3.405,-3.4089,-3.4101,-3.4129,-3.4147,-3.416,-3.418,-3.4197,-3.4221,-3.4232,-3.4259,-3.4274,-3.4294,-3.4301,-3.4284,-3.4346,-3.4325,-3.435,-3.435,-3.4362,-3.4361,-3.4434,-3.4374,-3.4373,-3.4373,-3.4373,0,-3.4058,-3.4092,-3.4106,-3.413,-3.4167,-3.4173,-3.421,-3.4222,-3.424,-3.4266,-3.4263,-3.4287,-3.4295,-3.432,-3.4325,-3.4362,-3.4369,-3.4373,-3.4374,-3.4373,-3.4372,-3.4381,-3.4378,-3.4375,-3.4375,-3.4374,-3.4374,0,-3.4105,-3.4116,-3.4158,-3.4182,-3.4188,-3.4215,-3.4235,-3.4258,-3.4267,-3.4299,-3.4307,-3.4321,-3.4351,-3.436,-3.4395,-3.4399,-3.4442,-3.444,-3.4435,-3.4435,-3.4459,-3.4457,-3.454,-3.4551,-3.4484,-3.4484,-3.4485,0,-3.4139,-3.4164,-3.4192,-3.4209,-3.4223,-3.4251,-3.4269,-3.4276,-3.4294,-3.4322,-3.4341,-3.4371,-3.4395,-3.4443,-3.4456,-3.4483,-3.4481,-3.4508,-3.4485,-3.4483,-3.4481,-3.4479,-3.4481,-3.4512,-3.4513,-3.4514,-3.4514,0,-3.4197,-3.4202,-3.4228,-3.4257,-3.4279,-3.4301,-3.4323,-3.4337,-3.4348,-3.4369,-3.44,-3.4418,-3.4455,-3.4485,-3.4513,-3.4525,-3.4521,-3.4522,-3.4529,-3.4528,-3.4523,-3.4525,-3.4446,-3.4519,-3.4519,-3.4518,-3.4518,-3.4518,-3.4238,-3.4261,-3.4284,-3.4314,-3.4331,-3.4352,-3.4375,-3.4387,-3.4413,-3.4444,-3.4447,-3.4481,-3.4502,-3.4539,-3.4553,-3.4579,-3.4571,-3.4582,-3.4584,-3.4587,-3.4588,-3.452,-3.4584,-3.4584,-3.4584,-3.4584,-3.4584,0,-3.4296,-3.4311,-3.4339,-3.437,-3.4393,-3.4389,-3.4413,-3.4433,-3.4462,-3.4483,-3.4507,-3.4543,-3.4572,-3.4588,-3.4616,-3.4634,-3.4633,-3.4641,-3.464,-3.4642,-3.4594,-3.4585,-3.4642,-3.4642,-3.4642,-3.4642,-3.4642,-3.4642,-3.4329,-3.4368,-3.4376,-3.4423,-3.4437,-3.4471,-3.4485,-3.4504,-3.4521,-3.4561,-3.4585,-3.4596,-3.4615,-3.4645,-3.4671,-3.4675,-3.4685,-3.4694,-3.4697,-3.4652,-3.4646,-3.464,-3.4631,-3.4697,-3.4697,-3.4743,-3.4744,-3.4744]},{"header":{"parameterUnit":"m.s-1","parameterCategory":1,"la1":30.2991,"la2":30.254,"lo1":-89.0895,"lo2":-89.0444,"dy":0.0017,"dx":0.0017,"nx":28,"ny":28,"refTime":"2024-08-28T21:00:00:Z","depth":0,"parameterNumber":3,"parameterNumberName":"V-component_of_WINDS"},"data":[0,0,0,0,0,0,0,0,0,0,0,0,0,0,0,0,0,0,0,0,0,0,0,0,0,0,0,0,0,0,0,0,0,0,0,0,0,0,0,0,0,0,0,0,0,0,0,0,0,0,0,0,0,0,0,0,0,0,3.2455,3.2455,0,3.2453,3.2453,3.2453,3.2422,3.2422,3.2421,3.242,3.2418,3.2418,3.2419,0,0,0,0,0,0,0,0,0,0,0,0,0,3.2432,3.2432,3.2455,3.2455,3.2455,3.2453,3.2453,3.2453,3.2422,3.2422,3.2421,3.242,3.2418,3.2418,3.2419,0,0,0,0,0,0,0,0,0,0,0,0,0,3.2437,3.2433,3.2455,3.2439,3.2438,3.2453,3.2453,3.2453,3.2423,3.2421,3.242,3.2419,3.2417,3.2418,3.2419,3.2449,0,0,3.2422,3.2423,0,0,0,0,0,0,0,0,3.2437,3.2438,3.2442,3.244,3.2439,3.2437,3.2444,3.2452,3.2423,3.2428,3.242,3.2419,3.2425,3.2425,3.2427,3.2449,3.2449,3.2422,3.2423,3.2423,3.2424,0,0,0,0,0,0,0,3.2437,3.2438,3.2454,3.2442,3.244,3.2433,3.2432,3.2445,3.2433,3.2428,3.2426,3.2426,3.2424,3.2427,3.2427,3.2449,3.2422,3.2423,3.2424,3.2424,3.2495,3.2496,0,0,0,0,0,0,3.2438,3.2438,3.2454,3.2454,3.2435,3.2434,3.2433,3.2439,3.2433,3.2431,3.2427,3.2424,3.2425,3.2426,3.2427,3.2462,3.2423,3.2424,3.2425,3.2494,3.2496,3.2497,0,0,0,0,0,0,3.2438,3.244,3.2454,3.2445,3.2447,3.2436,3.2442,3.2439,3.2442,3.2432,3.243,3.2432,3.2425,3.2426,3.2444,3.2461,3.2425,3.2426,3.2492,3.2494,3.2496,3.2532,0,0,0,0,0,0,3.2437,3.244,3.2451,3.2446,3.2447,3.2471,3.2443,3.244,3.2444,3.244,3.2436,3.2434,3.2424,3.2443,3.2445,3.2462,3.2426,3.2491,3.2493,3.2496,3.2529,3.2534,3.2539,0,0,0,0,0,3.2437,3.2461,3.2452,3.2454,3.2461,3.2472,3.2473,3.246,3.2445,3.2456,3.245,3.2435,3.2459,3.2445,3.2447,3.2465,3.249,3.2493,3.2495,3.2526,3.2533,3.2539,0,0,0,0,0,0,3.2468,3.246,3.245,3.2473,3.2474,3.2467,3.248,3.2468,3.2473,3.2469,3.2453,3.2453,3.2474,3.2471,3.2455,3.2494,3.2472,3.2475,3.2495,3.2501,3.2506,3.2506,3.2427,0,0,0,0,0,3.2477,3.2488,3.248,3.2501,3.2502,3.2492,3.2496,3.2486,3.2486,3.2486,3.2482,3.2482,3.249,3.2495,3.2502,3.2529,3.2527,3.2542,3.2547,3.2552,3.2555,3.2569,3.2576,3.2506,3.2506,3.2506,0,0,3.2497,3.2494,3.2501,3.2507,3.2507,3.2518,3.2492,3.2504,3.2512,3.2488,3.2505,3.2502,3.2502,3.2524,3.2534,3.2523,3.2574,3.2555,3.2559,3.2559,3.2573,3.2579,3.2585,3.2508,3.2508,3.2508,0,0,3.2539,3.2538,3.2555,3.2556,3.2555,3.2548,3.2553,3.2548,3.2546,3.2563,3.2545,3.2554,3.2568,3.2569,3.2571,3.2615,3.26,3.2617,3.2644,3.2659,3.2664,3.2669,3.2685,3.2691,3.262,3.2621,3.2621,0,3.2563,3.2579,3.2566,3.258,3.2583,3.2563,3.2581,3.2582,3.2584,3.2586,3.2574,3.2591,3.259,3.2613,3.2623,3.2626,3.263,3.2617,3.2665,3.2669,3.2673,3.2688,3.2694,3.2623,3.2622,3.2622,3.2622,0,3.2609,3.2621,3.2635,3.2638,3.2643,3.2659,3.2649,3.2656,3.2646,3.2641,3.2659,3.2656,3.2662,3.2667,3.2657,3.2689,3.2682,3.2667,3.2645,3.2682,3.2696,3.2702,3.2626,3.2625,3.2624,3.2624,0,0,3.2669,3.2666,3.2672,3.2673,3.2672,3.268,3.2696,3.2702,3.2709,3.2711,3.2724,3.2737,3.2723,3.2726,3.2716,3.2729,3.2764,3.2713,3.2713,3.2723,3.2799,3.281,3.2817,3.2755,3.2756,3.2757,3.2799,0,3.271,3.2736,3.2725,3.2752,3.2763,3.2745,3.2758,3.2759,3.2755,3.2763,3.2758,3.2768,3.2749,3.2751,3.2762,3.2757,3.2779,3.2754,3.2767,3.2767,3.2767,3.2824,3.2835,3.2876,3.2805,3.2806,3.2806,0,3.276,3.2765,3.2794,3.2792,3.2796,3.2808,3.2814,3.2822,3.2823,3.2819,3.2823,3.2811,3.2826,3.2804,3.2825,3.2808,3.2813,3.2811,3.2813,3.2813,3.2789,3.2826,3.2888,3.2894,3.2814,3.2814,3.2813,0,3.2801,3.2815,3.2834,3.2836,3.2834,3.2844,3.2843,3.2843,3.2848,3.2853,3.2856,3.2863,3.2866,3.2872,3.2862,3.2847,3.2885,3.2862,3.2882,3.2882,3.289,3.289,3.2954,3.2893,3.2893,3.2893,3.2893,0,3.2847,3.2865,3.2853,3.2865,3.2885,3.2873,3.2893,3.289,3.2891,3.2902,3.2886,3.2897,3.2883,3.2893,3.2885,3.2904,3.2906,3.2903,3.2901,3.2904,3.2905,3.2907,3.2904,3.2895,3.2895,3.2894,3.2894,0,3.2896,3.2888,3.2908,3.2905,3.2905,3.292,3.2918,3.2928,3.2924,3.2938,3.294,3.2933,3.2943,3.2934,3.2944,3.2939,3.2964,3.2958,3.2964,3.2962,3.2983,3.2981,3.305,3.3059,3.2993,3.2994,3.2994,0,3.2926,3.2939,3.2938,3.2945,3.2946,3.2957,3.2962,3.2951,3.2957,3.296,3.2971,3.298,3.2987,3.3004,3.3,3.3007,3.3001,3.3025,3.3002,3.3006,3.3002,3.3001,3.3003,3.3029,3.303,3.3031,3.3031,0,3.2979,3.2975,3.2984,3.2991,3.2998,3.3004,3.3008,3.3014,3.3003,3.3011,3.3022,3.3027,3.3038,3.3047,3.3054,3.3053,3.3041,3.3039,3.3044,3.3047,3.3051,3.3049,3.2976,3.3037,3.3036,3.3036,3.3036,3.3035,3.3019,3.3031,3.3033,3.3043,3.3045,3.305,3.306,3.3057,3.3066,3.3074,3.3067,3.3081,3.3082,3.3089,3.3091,3.3101,3.3091,3.3098,3.31,3.3102,3.3105,3.3049,3.3102,3.3102,3.3102,3.3101,3.3101,0,3.3073,3.3073,3.3083,3.3089,3.3098,3.3086,3.309,3.3098,3.311,3.3113,3.312,3.3133,3.3143,3.3139,3.3147,3.3156,3.3151,3.3159,3.3158,3.3158,3.3113,3.3108,3.3163,3.3163,3.3163,3.3163,3.3163,3.3163,3.3101,3.3121,3.3117,3.3138,3.3138,3.3151,3.3155,3.3159,3.3161,3.3177,3.3185,3.3183,3.3183,3.3192,3.32,3.3199,3.3203,3.3213,3.321,3.3167,3.3161,3.3156,3.3151,3.3214,3.3214,3.3254,3.3254,3.3254]}]]